Time,TemperatureF,DewpointF,PressureIn,WindDirection,WindDirectionDegrees,WindSpeedMPH,WindSpeedGustMPH,Humidity,HourlyPrecipIn,Conditions,Clouds,dailyrainin,SoftwareType,DateUTC
2014-09-20 00:03:00,59.1,54.9,30.09,East,92,0.0,0.0,86,0.00,,,0.00,Wunderground v.1.15,2014-09-20 04:03:00,
2014-09-20 00:09:00,59.1,54.9,30.09,East,92,0.0,0.0,86,0.00,,,0.00,Wunderground v.1.15,2014-09-20 04:09:00,
2014-09-20 00:14:00,59.0,54.8,30.08,East,92,0.0,0.0,86,0.00,,,0.00,Wunderground v.1.15,2014-09-20 04:14:00,
2014-09-20 00:19:00,58.9,54.7,30.08,East,92,0.0,0.0,86,0.00,,,0.00,Wunderground v.1.15,2014-09-20 04:19:00,
2014-09-20 00:25:00,58.9,54.7,30.08,East,92,0.0,0.0,86,0.00,,,0.00,Wunderground v.1.15,2014-09-20 04:25:00,
2014-09-20 00:30:00,58.7,54.5,30.08,East,92,0.0,0.0,86,0.00,,,0.00,Wunderground v.1.15,2014-09-20 04:30:00,
2014-09-20 00:36:00,58.4,54.5,30.08,East,92,0.0,0.0,87,0.00,,,0.00,Wunderground v.1.15,2014-09-20 04:36:00,
2014-09-20 00:41:00,58.0,54.5,30.08,East,92,0.0,0.0,88,0.00,,,0.00,Wunderground v.1.15,2014-09-20 04:41:00,
2014-09-20 00:46:00,57.7,54.2,30.08,East,92,0.0,0.0,88,0.00,,,0.00,Wunderground v.1.15,2014-09-20 04:46:00,
2014-09-20 00:51:00,57.5,54.3,30.08,East,92,0.0,0.0,89,0.00,,,0.00,Wunderground v.1.15,2014-09-20 04:51:00,
2014-09-20 00:57:00,57.3,54.1,30.08,East,92,0.0,0.0,89,0.00,,,0.00,Wunderground v.1.15,2014-09-20 04:57:00,
2014-09-20 01:02:00,57.2,54.3,30.08,East,92,0.0,0.0,90,0.00,,,0.00,Wunderground v.1.15,2014-09-20 05:02:00,
2014-09-20 01:07:00,57.1,54.2,30.08,East,92,0.0,0.0,90,0.00,,,0.00,Wunderground v.1.15,2014-09-20 05:07:00,
2014-09-20 01:13:00,57.0,54.1,30.08,East,92,0.0,0.0,90,0.00,,,0.00,Wunderground v.1.15,2014-09-20 05:13:00,
2014-09-20 01:18:00,56.8,53.9,30.08,East,92,0.0,0.0,90,0.00,,,0.00,Wunderground v.1.15,2014-09-20 05:18:00,
2014-09-20 01:24:00,56.6,54.0,30.08,East,92,0.0,0.0,91,0.00,,,0.00,Wunderground v.1.15,2014-09-20 05:24:00,
2014-09-20 01:29:00,56.5,53.9,30.08,East,92,0.0,0.0,91,0.00,,,0.00,Wunderground v.1.15,2014-09-20 05:29:00,
2014-09-20 01:34:00,56.3,53.7,30.08,East,92,0.0,0.0,91,0.00,,,0.00,Wunderground v.1.15,2014-09-20 05:34:00,
2014-09-20 01:39:00,56.2,53.9,30.07,East,92,0.0,0.0,92,0.00,,,0.00,Wunderground v.1.15,2014-09-20 05:39:00,
2014-09-20 01:45:00,56.1,53.8,30.07,East,92,0.0,0.0,92,0.00,,,0.00,Wunderground v.1.15,2014-09-20 05:45:00,
2014-09-20 01:50:00,56.1,53.8,30.07,East,92,0.0,0.0,92,0.00,,,0.00,Wunderground v.1.15,2014-09-20 05:50:00,
2014-09-20 01:56:00,56.2,54.2,30.07,East,92,0.0,0.0,93,0.00,,,0.00,Wunderground v.1.15,2014-09-20 05:56:00,
2014-09-20 02:01:00,56.3,54.3,30.07,East,92,0.0,0.0,93,0.00,,,0.00,Wunderground v.1.15,2014-09-20 06:01:00,
2014-09-20 02:06:00,56.4,54.4,30.07,East,92,0.0,0.0,93,0.00,,,0.00,Wunderground v.1.15,2014-09-20 06:06:00,
2014-09-20 02:11:00,56.6,54.6,30.07,East,92,0.0,1.0,93,0.00,,,0.00,Wunderground v.1.15,2014-09-20 06:11:00,
2014-09-20 02:16:00,57.1,55.1,30.06,East,92,0.0,0.0,93,0.00,,,0.00,Wunderground v.1.15,2014-09-20 06:16:00,
2014-09-20 02:21:00,57.8,55.8,30.06,East,92,0.0,0.0,93,0.00,,,0.00,Wunderground v.1.15,2014-09-20 06:21:00,
2014-09-20 02:26:00,58.9,56.9,30.06,East,96,0.0,1.0,93,0.00,,,0.00,Wunderground v.1.15,2014-09-20 06:26:00,
2014-09-20 02:31:00,59.6,57.0,30.06,East,96,0.0,1.0,91,0.00,,,0.00,Wunderground v.1.15,2014-09-20 06:31:00,
2014-09-20 02:36:00,60.1,57.2,30.06,ESE,105,0.0,3.0,90,0.00,,,0.00,Wunderground v.1.15,2014-09-20 06:36:00,
2014-09-20 02:41:00,60.6,57.3,30.06,SE,132,0.0,3.0,89,0.00,,,0.00,Wunderground v.1.15,2014-09-20 06:41:00,
2014-09-20 02:46:00,60.8,57.2,30.06,SE,132,0.0,1.0,88,0.00,,,0.00,Wunderground v.1.15,2014-09-20 06:46:00,
2014-09-20 02:51:00,60.8,56.9,30.06,SE,133,0.0,1.0,87,0.00,,,0.00,Wunderground v.1.15,2014-09-20 06:51:00,
2014-09-20 02:56:00,61.1,57.2,30.06,SE,124,0.0,1.0,87,0.00,,,0.00,Wunderground v.1.15,2014-09-20 06:56:00,
2014-09-20 03:01:00,61.3,57.4,30.06,SE,124,0.0,1.0,87,0.00,,,0.00,Wunderground v.1.15,2014-09-20 07:01:00,
2014-09-20 03:06:00,61.4,57.5,30.05,SE,124,0.0,0.0,87,0.00,,,0.00,Wunderground v.1.15,2014-09-20 07:06:00,
2014-09-20 03:11:00,61.7,57.8,30.05,SE,124,0.0,1.0,87,0.00,,,0.00,Wunderground v.1.15,2014-09-20 07:11:00,
2014-09-20 03:16:00,61.6,57.4,30.05,SE,124,0.0,0.0,86,0.00,,,0.00,Wunderground v.1.15,2014-09-20 07:16:00,
2014-09-20 03:21:00,61.5,57.6,30.05,SE,124,0.0,1.0,87,0.00,,,0.00,Wunderground v.1.15,2014-09-20 07:21:00,
2014-09-20 03:27:00,61.3,57.4,30.05,SE,124,0.0,0.0,87,0.00,,,0.00,Wunderground v.1.15,2014-09-20 07:27:00,
2014-09-20 03:32:00,61.0,57.1,30.05,SE,124,0.0,0.0,87,0.00,,,0.00,Wunderground v.1.15,2014-09-20 07:32:00,
2014-09-20 03:37:00,60.9,57.3,30.05,SE,125,0.0,0.0,88,0.00,,,0.00,Wunderground v.1.15,2014-09-20 07:37:00,
2014-09-20 03:42:00,60.5,56.6,30.05,SE,125,0.0,0.0,87,0.00,,,0.00,Wunderground v.1.15,2014-09-20 07:42:00,
2014-09-20 03:47:00,60.5,56.9,30.05,SE,125,0.0,0.0,88,0.00,,,0.00,Wunderground v.1.15,2014-09-20 07:47:00,
2014-09-20 03:52:00,60.7,57.4,30.05,SE,127,0.0,3.0,89,0.00,,,0.00,Wunderground v.1.15,2014-09-20 07:52:00,
2014-09-20 03:57:00,61.1,58.1,30.04,SE,142,0.0,2.0,90,0.00,,,0.00,Wunderground v.1.15,2014-09-20 07:57:00,
2014-09-20 04:02:00,61.3,58.3,30.04,SE,138,1.0,2.0,90,0.00,,,0.00,Wunderground v.1.15,2014-09-20 08:02:00,
2014-09-20 04:07:00,61.6,58.6,30.04,SSE,150,2.0,3.0,90,0.00,,,0.00,Wunderground v.1.15,2014-09-20 08:07:00,
2014-09-20 04:12:00,61.8,58.8,30.05,SSE,155,2.0,3.0,90,0.00,,,0.00,Wunderground v.1.15,2014-09-20 08:12:00,
2014-09-20 04:17:00,61.9,58.6,30.05,SSE,155,0.0,2.0,89,0.00,,,0.00,Wunderground v.1.15,2014-09-20 08:17:00,
2014-09-20 04:22:00,62.1,59.1,30.05,SSE,153,1.0,4.0,90,0.00,,,0.00,Wunderground v.1.15,2014-09-20 08:22:00,
2014-09-20 04:27:00,62.2,59.2,30.05,SSE,151,0.0,1.0,90,0.00,,,0.00,Wunderground v.1.15,2014-09-20 08:27:00,
2014-09-20 04:32:00,62.3,59.3,30.05,SE,130,0.0,4.0,90,0.00,,,0.00,Wunderground v.1.15,2014-09-20 08:32:00,
2014-09-20 04:37:00,62.4,59.4,30.05,SSE,160,0.0,2.0,90,0.00,,,0.00,Wunderground v.1.15,2014-09-20 08:37:00,
2014-09-20 04:42:00,62.4,59.4,30.05,South,187,1.0,5.0,90,0.00,,,0.00,Wunderground v.1.15,2014-09-20 08:42:00,
2014-09-20 04:47:00,62.5,59.5,30.05,SE,142,0.0,3.0,90,0.00,,,0.00,Wunderground v.1.15,2014-09-20 08:47:00,
2014-09-20 04:52:00,62.5,59.5,30.05,SSE,163,1.0,4.0,90,0.00,,,0.00,Wunderground v.1.15,2014-09-20 08:52:00,
2014-09-20 04:57:00,62.5,59.5,30.05,SE,124,0.0,3.0,90,0.00,,,0.00,Wunderground v.1.15,2014-09-20 08:57:00,
2014-09-20 05:02:00,62.6,59.6,30.05,SE,134,0.0,3.0,90,0.00,,,0.00,Wunderground v.1.15,2014-09-20 09:02:00,
2014-09-20 05:07:00,62.5,59.8,30.05,SE,131,2.0,3.0,91,0.00,,,0.00,Wunderground v.1.15,2014-09-20 09:07:00,
2014-09-20 05:12:00,62.5,59.8,30.05,ESE,110,1.0,3.0,91,0.00,,,0.00,Wunderground v.1.15,2014-09-20 09:12:00,
2014-09-20 05:17:00,62.5,59.8,30.05,SE,126,0.0,2.0,91,0.00,,,0.00,Wunderground v.1.15,2014-09-20 09:17:00,
2014-09-20 05:22:00,62.6,59.9,30.06,South,184,1.0,6.0,91,0.00,,,0.00,Wunderground v.1.15,2014-09-20 09:22:00,
2014-09-20 05:27:00,62.5,59.8,30.06,South,186,1.0,3.0,91,0.00,,,0.00,Wunderground v.1.15,2014-09-20 09:27:00,
2014-09-20 05:32:00,62.5,59.8,30.06,South,190,1.0,4.0,91,0.00,,,0.00,Wunderground v.1.15,2014-09-20 09:32:00,
2014-09-20 05:37:00,62.5,60.1,30.06,South,169,1.0,3.0,92,0.00,,,0.00,Wunderground v.1.15,2014-09-20 09:37:00,
2014-09-20 05:42:00,62.5,60.1,30.06,East,101,0.0,3.0,92,0.00,,,0.00,Wunderground v.1.15,2014-09-20 09:42:00,
2014-09-20 05:47:00,62.5,60.1,30.06,WSW,257,2.0,4.0,92,0.00,,,0.00,Wunderground v.1.15,2014-09-20 09:47:00,
2014-09-20 05:52:00,62.6,60.2,30.06,WSW,254,0.0,4.0,92,0.00,,,0.00,Wunderground v.1.15,2014-09-20 09:52:00,
2014-09-20 05:57:00,62.5,60.1,30.06,West,262,0.0,1.0,92,0.00,,,0.00,Wunderground v.1.15,2014-09-20 09:57:00,
2014-09-20 06:02:00,62.6,60.2,30.06,SE,138,0.0,3.0,92,0.00,,,0.00,Wunderground v.1.15,2014-09-20 10:02:00,
2014-09-20 06:08:00,62.6,60.2,30.06,SE,141,1.0,2.0,92,0.00,,,0.00,Wunderground v.1.15,2014-09-20 10:08:00,
2014-09-20 06:13:00,62.6,60.2,30.06,SE,140,0.0,3.0,92,0.00,,,0.00,Wunderground v.1.15,2014-09-20 10:13:00,
2014-09-20 06:18:00,62.5,60.1,30.06,SE,140,0.0,2.0,92,0.00,,,0.00,Wunderground v.1.15,2014-09-20 10:18:00,
2014-09-20 06:23:00,62.5,60.1,30.06,South,186,0.0,3.0,92,0.00,,,0.00,Wunderground v.1.15,2014-09-20 10:23:00,
2014-09-20 06:28:00,62.4,60.0,30.07,South,175,0.0,2.0,92,0.00,,,0.00,Wunderground v.1.15,2014-09-20 10:28:00,
2014-09-20 06:33:00,62.4,60.3,30.06,South,175,0.0,2.0,93,0.00,,,0.00,Wunderground v.1.15,2014-09-20 10:33:00,
2014-09-20 06:38:00,62.4,60.3,30.06,SE,134,5.0,5.0,93,0.00,,,0.00,Wunderground v.1.15,2014-09-20 10:38:00,
2014-09-20 06:43:00,62.5,60.4,30.07,SSE,157,0.0,5.0,93,0.00,,,0.00,Wunderground v.1.15,2014-09-20 10:43:00,
2014-09-20 06:48:00,62.6,60.5,30.07,WSW,244,2.0,4.0,93,0.00,,,0.00,Wunderground v.1.15,2014-09-20 10:48:00,
2014-09-20 06:53:00,62.6,60.5,30.07,South,186,2.0,4.0,93,0.00,,,0.00,Wunderground v.1.15,2014-09-20 10:53:00,
2014-09-20 06:58:00,62.6,60.5,30.07,South,186,0.0,3.0,93,0.00,,,0.00,Wunderground v.1.15,2014-09-20 10:58:00,
2014-09-20 07:03:00,62.5,60.4,30.07,SSE,165,2.0,5.0,93,0.00,,,0.00,Wunderground v.1.15,2014-09-20 11:03:00,
2014-09-20 07:08:00,62.5,60.4,30.07,East,100,0.0,3.0,93,0.00,,,0.00,Wunderground v.1.15,2014-09-20 11:08:00,
2014-09-20 07:13:00,62.4,60.3,30.07,ESE,106,0.0,3.0,93,0.00,,,0.00,Wunderground v.1.15,2014-09-20 11:13:00,
2014-09-20 07:18:00,62.3,60.2,30.07,East,92,5.0,5.0,93,0.00,,,0.00,Wunderground v.1.15,2014-09-20 11:18:00,
2014-09-20 07:23:00,62.3,60.2,30.07,SSE,152,0.0,5.0,93,0.00,,,0.00,Wunderground v.1.15,2014-09-20 11:23:00,
2014-09-20 07:28:00,62.1,60.1,30.07,SSW,205,3.0,3.0,93,0.00,,,0.00,Wunderground v.1.15,2014-09-20 11:28:00,
2014-09-20 07:33:00,62.1,60.1,30.08,South,174,0.0,4.0,93,0.00,,,0.00,Wunderground v.1.15,2014-09-20 11:33:00,
2014-09-20 07:38:00,62.1,60.1,30.08,ESE,103,1.0,3.0,93,0.00,,,0.00,Wunderground v.1.15,2014-09-20 11:38:00,
2014-09-20 07:43:00,62.2,60.2,30.08,SE,138,1.0,6.0,93,0.00,,,0.00,Wunderground v.1.15,2014-09-20 11:43:00,
2014-09-20 07:48:00,62.2,60.2,30.08,East,91,2.0,5.0,93,0.00,,,0.00,Wunderground v.1.15,2014-09-20 11:48:00,
2014-09-20 07:53:00,62.3,60.2,30.09,East,92,1.0,6.0,93,0.00,,,0.00,Wunderground v.1.15,2014-09-20 11:53:00,
2014-09-20 07:58:00,62.4,60.3,30.09,ESE,105,2.0,4.0,93,0.00,,,0.00,Wunderground v.1.15,2014-09-20 11:58:00,
2014-09-20 08:03:00,62.6,60.5,30.09,ENE,69,2.0,5.0,93,0.00,,,0.00,Wunderground v.1.15,2014-09-20 12:03:00,
2014-09-20 08:08:00,62.9,60.8,30.09,East,93,1.0,5.0,93,0.00,,,0.00,Wunderground v.1.15,2014-09-20 12:08:00,
2014-09-20 08:13:00,63.1,61.0,30.09,ENE,76,3.0,5.0,93,0.00,,,0.00,Wunderground v.1.15,2014-09-20 12:13:00,
2014-09-20 08:18:00,63.4,61.3,30.09,ESE,103,1.0,4.0,93,0.00,,,0.00,Wunderground v.1.15,2014-09-20 12:18:00,
2014-09-20 08:23:00,63.7,61.3,30.09,ENE,77,0.0,5.0,92,0.00,,,0.00,Wunderground v.1.15,2014-09-20 12:23:00,
2014-09-20 08:28:00,64.0,61.6,30.09,SW,219,4.0,6.0,92,0.00,,,0.00,Wunderground v.1.15,2014-09-20 12:28:00,
2014-09-20 08:33:00,64.3,61.9,30.09,SSW,194,3.0,6.0,92,0.00,,,0.00,Wunderground v.1.15,2014-09-20 12:33:00,
2014-09-20 08:38:00,64.6,61.9,30.09,ESE,103,0.0,3.0,91,0.00,,,0.00,Wunderground v.1.15,2014-09-20 12:38:00,
2014-09-20 08:43:00,65.0,62.3,30.09,SW,233,2.0,6.0,91,0.00,,,0.00,Wunderground v.1.15,2014-09-20 12:43:00,
2014-09-20 08:46:00,65.1,62.1,30.08,SE,129,2.0,2.0,90,0.00,,,0.00,Wunderground v.1.15,2014-09-20 12:46:00,
2014-09-20 08:51:00,65.4,62.4,30.08,ESE,120,1.0,5.0,90,0.00,,,0.00,Wunderground v.1.15,2014-09-20 12:51:00,
2014-09-20 08:56:00,65.6,62.6,30.08,SE,141,2.0,2.0,90,0.00,,,0.00,Wunderground v.1.15,2014-09-20 12:56:00,
2014-09-20 09:01:00,66.0,62.7,30.08,SSE,151,4.0,7.0,89,0.00,,,0.00,Wunderground v.1.15,2014-09-20 13:01:00,
2014-09-20 09:06:00,66.3,63.0,30.08,SSW,203,0.0,6.0,89,0.00,,,0.00,Wunderground v.1.15,2014-09-20 13:06:00,
2014-09-20 09:07:00,66.5,63.2,30.08,South,183,1.0,6.0,89,0.00,,,0.00,Wunderground v.1.15,2014-09-20 13:07:00,
2014-09-20 09:12:00,66.8,63.5,30.08,SSE,165,3.0,7.0,89,0.00,,,0.00,Wunderground v.1.15,2014-09-20 13:12:00,
2014-09-20 09:17:00,67.1,63.4,30.08,SSW,213,2.0,8.0,88,0.00,,,0.00,Wunderground v.1.15,2014-09-20 13:17:00,
2014-09-20 09:22:00,67.5,63.8,30.08,SSE,161,2.0,11.0,88,0.00,,,0.00,Wunderground v.1.15,2014-09-20 13:22:00,
2014-09-20 09:27:00,67.9,63.9,30.08,SSE,153,2.0,5.0,87,0.00,,,0.00,Wunderground v.1.15,2014-09-20 13:27:00,
2014-09-20 09:32:00,68.1,64.1,30.09,ESE,109,1.0,7.0,87,0.00,,,0.00,Wunderground v.1.15,2014-09-20 13:32:00,
2014-09-20 09:37:00,68.2,64.2,30.09,SW,216,1.0,9.0,87,0.00,,,0.00,Wunderground v.1.15,2014-09-20 13:37:00,
2014-09-20 09:42:00,68.4,64.0,30.09,SW,233,1.0,10.0,86,0.00,,,0.00,Wunderground v.1.15,2014-09-20 13:42:00,
2014-09-20 09:47:00,68.8,64.4,30.08,WSW,255,2.0,3.0,86,0.00,,,0.00,Wunderground v.1.15,2014-09-20 13:47:00,
2014-09-20 09:52:00,69.2,64.5,30.09,SSW,208,3.0,10.0,85,0.00,,,0.00,Wunderground v.1.15,2014-09-20 13:52:00,
2014-09-20 09:57:00,69.3,64.6,30.09,SSW,209,3.0,6.0,85,0.00,,,0.00,Wunderground v.1.15,2014-09-20 13:57:00,
2014-09-20 10:02:00,69.5,64.8,30.09,West,273,1.0,6.0,85,0.00,,,0.00,Wunderground v.1.15,2014-09-20 14:02:00,
2014-09-20 10:07:00,69.8,65.1,30.09,SW,231,2.0,5.0,85,0.00,,,0.00,Wunderground v.1.15,2014-09-20 14:07:00,
2014-09-20 10:12:00,70.2,65.1,30.09,South,190,6.0,7.0,84,0.00,,,0.00,Wunderground v.1.15,2014-09-20 14:12:00,
2014-09-20 10:17:00,70.8,65.7,30.09,SSE,153,1.0,6.0,84,0.00,,,0.00,Wunderground v.1.15,2014-09-20 14:17:00,
2014-09-20 10:22:00,71.4,66.0,30.09,WSW,252,2.0,8.0,83,0.00,,,0.00,Wunderground v.1.15,2014-09-20 14:22:00,
2014-09-20 10:27:00,71.7,66.3,30.08,SW,236,3.0,7.0,83,0.00,,,0.00,Wunderground v.1.15,2014-09-20 14:27:00,
2014-09-20 10:32:00,72.1,66.3,30.08,SW,219,2.0,11.0,82,0.00,,,0.00,Wunderground v.1.15,2014-09-20 14:32:00,
2014-09-20 10:37:00,72.4,66.2,30.08,South,171,2.0,8.0,81,0.00,,,0.00,Wunderground v.1.15,2014-09-20 14:37:00,
2014-09-20 10:42:00,73.1,66.9,30.08,SSE,159,3.0,9.0,81,0.00,,,0.00,Wunderground v.1.15,2014-09-20 14:42:00,
2014-09-20 10:47:00,72.9,66.4,30.08,SE,132,4.0,10.0,80,0.00,,,0.00,Wunderground v.1.15,2014-09-20 14:47:00,
2014-09-20 10:52:00,73.3,67.1,30.08,SSW,198,1.0,10.0,81,0.00,,,0.00,Wunderground v.1.15,2014-09-20 14:52:00,
2014-09-20 10:57:00,73.3,66.8,30.08,West,267,4.0,11.0,80,0.00,,,0.00,Wunderground v.1.15,2014-09-20 14:57:00,
2014-09-20 11:02:00,73.7,67.1,30.08,SW,232,4.0,11.0,80,0.00,,,0.00,Wunderground v.1.15,2014-09-20 15:02:00,
2014-09-20 11:05:00,74.0,67.1,30.07,SE,144,2.0,5.0,79,0.00,,,0.00,Wunderground v.1.15,2014-09-20 15:05:00,
2014-09-20 11:10:00,74.1,66.8,30.07,SSW,205,4.0,11.0,78,0.00,,,0.00,Wunderground v.1.15,2014-09-20 15:10:00,
2014-09-20 11:14:00,73.9,67.0,30.07,SSW,200,4.0,14.0,79,0.00,,,0.00,Wunderground v.1.15,2014-09-20 15:14:00,
2014-09-20 11:19:00,74.1,67.5,30.07,SSE,160,9.0,15.0,80,0.00,,,0.00,Wunderground v.1.15,2014-09-20 15:19:00,
2014-09-20 11:24:00,74.5,67.6,30.07,SSW,206,2.0,6.0,79,0.00,,,0.00,Wunderground v.1.15,2014-09-20 15:24:00,
2014-09-20 11:29:00,74.8,67.5,30.07,SW,229,6.0,12.0,78,0.00,,,0.00,Wunderground v.1.15,2014-09-20 15:29:00,
2014-09-20 11:34:00,74.9,67.6,30.07,WSW,248,3.0,4.0,78,0.00,,,0.00,Wunderground v.1.15,2014-09-20 15:34:00,
2014-09-20 11:40:00,74.9,67.2,30.07,WSW,257,8.0,11.0,77,0.00,,,0.00,Wunderground v.1.15,2014-09-20 15:40:00,
2014-09-20 11:45:00,75.5,67.8,30.07,WSW,245,9.0,13.0,77,0.00,,,0.00,Wunderground v.1.15,2014-09-20 15:45:00,
2014-09-20 11:50:00,75.6,67.9,30.07,South,183,10.0,13.0,77,0.00,,,0.00,Wunderground v.1.15,2014-09-20 15:50:00,
2014-09-20 11:55:00,75.3,67.2,30.07,SSW,203,12.0,12.0,76,0.00,,,0.00,Wunderground v.1.15,2014-09-20 15:55:00,
2014-09-20 12:00:00,75.5,67.8,30.07,WSW,246,8.0,13.0,77,0.00,,,0.00,Wunderground v.1.15,2014-09-20 16:00:00,
2014-09-20 12:05:00,76.0,67.9,30.06,West,262,7.0,8.0,76,0.00,,,0.00,Wunderground v.1.15,2014-09-20 16:05:00,
2014-09-20 12:10:00,76.0,67.9,30.06,West,277,1.0,13.0,76,0.00,,,0.00,Wunderground v.1.15,2014-09-20 16:10:00,
2014-09-20 12:15:00,76.8,68.7,30.06,WSW,248,3.0,5.0,76,0.00,,,0.00,Wunderground v.1.15,2014-09-20 16:15:00,
2014-09-20 12:20:00,77.3,68.4,30.05,South,182,1.0,8.0,74,0.00,,,0.00,Wunderground v.1.15,2014-09-20 16:20:00,
2014-09-20 12:25:00,77.5,68.6,30.06,South,173,6.0,6.0,74,0.00,,,0.00,Wunderground v.1.15,2014-09-20 16:25:00,
2014-09-20 12:30:00,77.2,67.9,30.05,South,177,8.0,14.0,73,0.00,,,0.00,Wunderground v.1.15,2014-09-20 16:30:00,
2014-09-20 12:35:00,77.3,68.0,30.05,SW,216,11.0,11.0,73,0.00,,,0.00,Wunderground v.1.15,2014-09-20 16:35:00,
2014-09-20 12:40:00,77.4,67.7,30.05,WSW,257,3.0,13.0,72,0.00,,,0.00,Wunderground v.1.15,2014-09-20 16:40:00,
2014-09-20 12:45:00,77.1,67.8,30.05,SSW,213,7.0,13.0,73,0.00,,,0.00,Wunderground v.1.15,2014-09-20 16:45:00,
2014-09-20 12:50:00,76.9,68.0,30.05,WSW,256,5.0,18.0,74,0.00,,,0.00,Wunderground v.1.15,2014-09-20 16:50:00,
2014-09-20 12:55:00,77.3,68.0,30.05,SE,132,6.0,12.0,73,0.00,,,0.00,Wunderground v.1.15,2014-09-20 16:55:00,
2014-09-20 13:00:00,77.3,68.0,30.05,SW,227,6.0,12.0,73,0.00,,,0.00,Wunderground v.1.15,2014-09-20 17:00:00,
2014-09-20 13:05:00,77.2,68.3,30.05,SW,234,1.0,5.0,74,0.00,,,0.00,Wunderground v.1.15,2014-09-20 17:05:00,
2014-09-20 13:10:00,77.1,68.2,30.04,SW,217,4.0,13.0,74,0.00,,,0.00,Wunderground v.1.15,2014-09-20 17:10:00,
2014-09-20 13:15:00,77.0,68.1,30.05,WSW,248,4.0,5.0,74,0.00,,,0.00,Wunderground v.1.15,2014-09-20 17:15:00,
2014-09-20 13:20:00,77.1,68.2,30.05,WSW,246,5.0,7.0,74,0.00,,,0.00,Wunderground v.1.15,2014-09-20 17:20:00,
2014-09-20 13:25:00,77.1,68.2,30.04,SW,215,6.0,7.0,74,0.00,,,0.00,Wunderground v.1.15,2014-09-20 17:25:00,
2014-09-20 13:30:00,77.1,68.2,30.04,WSW,242,7.0,12.0,74,0.00,,,0.00,Wunderground v.1.15,2014-09-20 17:30:00,
2014-09-20 13:35:00,77.1,67.8,30.04,WSW,257,6.0,7.0,73,0.00,,,0.00,Wunderground v.1.15,2014-09-20 17:35:00,
2014-09-20 13:40:00,77.1,68.2,30.03,SW,222,5.0,10.0,74,0.00,,,0.00,Wunderground v.1.15,2014-09-20 17:40:00,
2014-09-20 13:45:00,77.8,68.0,30.03,WSW,256,7.0,9.0,72,0.00,,,0.00,Wunderground v.1.15,2014-09-20 17:45:00,
2014-09-20 13:50:00,77.6,67.9,30.03,SSW,213,7.0,13.0,72,0.00,,,0.00,Wunderground v.1.15,2014-09-20 17:50:00,
2014-09-20 13:55:00,77.5,67.8,30.02,SW,234,4.0,8.0,72,0.00,,,0.00,Wunderground v.1.15,2014-09-20 17:55:00,
2014-09-20 14:00:00,77.6,68.3,30.02,WSW,243,2.0,10.0,73,0.00,,,0.00,Wunderground v.1.15,2014-09-20 18:00:00,
2014-09-20 14:05:00,79.3,69.5,30.01,WSW,244,3.0,4.0,72,0.00,,,0.00,Wunderground v.1.15,2014-09-20 18:05:00,
2014-09-20 14:11:00,79.6,69.4,30.01,SSW,196,3.0,9.0,71,0.00,,,0.00,Wunderground v.1.15,2014-09-20 18:11:00,
2014-09-20 14:15:00,79.5,68.9,30.01,SSW,201,5.0,5.0,70,0.00,,,0.00,Wunderground v.1.15,2014-09-20 18:15:00,
2014-09-20 14:20:00,79.7,68.6,30.01,West,262,1.0,10.0,69,0.00,,,0.00,Wunderground v.1.15,2014-09-20 18:20:00,
2014-09-20 14:26:00,80.1,68.2,30.00,WSW,245,4.0,12.0,67,0.00,,,0.00,Wunderground v.1.15,2014-09-20 18:26:00,
2014-09-20 14:30:00,80.1,68.2,30.00,SE,146,9.0,15.0,67,0.00,,,0.00,Wunderground v.1.15,2014-09-20 18:30:00,
2014-09-20 14:36:00,79.4,67.5,30.00,SW,232,7.0,8.0,67,0.00,,,0.00,Wunderground v.1.15,2014-09-20 18:36:00,
2014-09-20 14:41:00,79.8,68.7,30.00,South,186,4.0,11.0,69,0.00,,,0.00,Wunderground v.1.15,2014-09-20 18:41:00,
2014-09-20 14:46:00,80.3,68.3,30.00,South,187,3.0,10.0,67,0.00,,,0.00,Wunderground v.1.15,2014-09-20 18:46:00,
2014-09-20 14:51:00,79.7,68.2,30.00,SSW,192,5.0,10.0,68,0.00,,,0.00,Wunderground v.1.15,2014-09-20 18:51:00,
2014-09-20 14:56:00,80.4,68.4,29.99,SW,221,5.0,11.0,67,0.00,,,0.00,Wunderground v.1.15,2014-09-20 18:56:00,
2014-09-20 15:01:00,79.9,68.4,29.99,SSW,199,1.0,11.0,68,0.00,,,0.00,Wunderground v.1.15,2014-09-20 19:01:00,
2014-09-20 15:06:00,80.1,68.6,29.98,SE,144,0.0,10.0,68,0.00,,,0.00,Wunderground v.1.15,2014-09-20 19:06:00,
2014-09-20 15:11:00,80.0,68.5,29.98,SW,234,4.0,11.0,68,0.00,,,0.00,Wunderground v.1.15,2014-09-20 19:11:00,
2014-09-20 15:16:00,80.4,68.4,29.98,NW,321,3.0,11.0,67,0.00,,,0.00,Wunderground v.1.15,2014-09-20 19:16:00,
2014-09-20 15:21:00,80.7,68.3,29.97,SSE,167,4.0,14.0,66,0.00,,,0.00,Wunderground v.1.15,2014-09-20 19:21:00,
2014-09-20 15:26:00,80.0,68.1,29.97,SW,221,3.0,11.0,67,0.00,,,0.00,Wunderground v.1.15,2014-09-20 19:26:00,
2014-09-20 15:31:00,80.7,68.7,29.97,SW,214,2.0,11.0,67,0.00,,,0.00,Wunderground v.1.15,2014-09-20 19:31:00,
2014-09-20 15:36:00,81.8,68.9,29.97,South,172,3.0,7.0,65,0.00,,,0.00,Wunderground v.1.15,2014-09-20 19:36:00,
2014-09-20 15:41:00,80.4,68.0,29.97,South,186,8.0,16.0,66,0.00,,,0.00,Wunderground v.1.15,2014-09-20 19:41:00,
2014-09-20 15:46:00,80.7,68.3,29.96,South,179,8.0,10.0,66,0.00,,,0.00,Wunderground v.1.15,2014-09-20 19:46:00,
2014-09-20 15:51:00,81.1,68.7,29.96,South,174,5.0,10.0,66,0.00,,,0.00,Wunderground v.1.15,2014-09-20 19:51:00,
2014-09-20 15:56:00,81.6,68.2,29.96,South,175,9.0,9.0,64,0.00,,,0.00,Wunderground v.1.15,2014-09-20 19:56:00,
2014-09-20 16:01:00,81.5,68.1,29.95,East,90,3.0,9.0,64,0.00,,,0.00,Wunderground v.1.15,2014-09-20 20:01:00,
2014-09-20 16:06:00,81.0,67.7,29.95,SW,220,3.0,11.0,64,0.00,,,0.00,Wunderground v.1.15,2014-09-20 20:06:00,
2014-09-20 16:11:00,81.2,67.9,29.95,WNW,284,4.0,11.0,64,0.00,,,0.00,Wunderground v.1.15,2014-09-20 20:11:00,
2014-09-20 16:16:00,81.5,68.6,29.95,South,175,4.0,7.0,65,0.00,,,0.00,Wunderground v.1.15,2014-09-20 20:16:00,
2014-09-20 16:21:00,81.5,67.7,29.95,SW,220,3.0,11.0,63,0.00,,,0.00,Wunderground v.1.15,2014-09-20 20:21:00,
2014-09-20 16:26:00,81.6,67.8,29.95,SW,232,5.0,14.0,63,0.00,,,0.00,Wunderground v.1.15,2014-09-20 20:26:00,
2014-09-20 16:31:00,81.3,67.5,29.95,SW,214,4.0,15.0,63,0.00,,,0.00,Wunderground v.1.15,2014-09-20 20:31:00,
2014-09-20 16:36:00,81.6,67.8,29.95,South,190,3.0,7.0,63,0.00,,,0.00,Wunderground v.1.15,2014-09-20 20:36:00,
2014-09-20 16:41:00,81.2,67.9,29.95,SW,223,2.0,7.0,64,0.00,,,0.00,Wunderground v.1.15,2014-09-20 20:41:00,
2014-09-20 16:46:00,80.8,67.9,29.95,West,260,1.0,11.0,65,0.00,,,0.00,Wunderground v.1.15,2014-09-20 20:46:00,
2014-09-20 16:51:00,80.9,67.1,29.94,SW,219,1.0,12.0,63,0.00,,,0.00,Wunderground v.1.15,2014-09-20 20:51:00,
2014-09-20 16:56:00,81.9,67.1,29.94,SSW,193,5.0,7.0,61,0.00,,,0.00,Wunderground v.1.15,2014-09-20 20:56:00,
2014-09-20 17:00:00,81.6,67.3,29.94,WNW,284,3.0,10.0,62,0.00,,,0.00,Wunderground v.1.15,2014-09-20 21:00:00,
2014-09-20 17:05:00,81.7,67.4,29.94,SSE,167,5.0,8.0,62,0.00,,,0.00,Wunderground v.1.15,2014-09-20 21:05:00,
2014-09-20 17:10:00,81.4,67.1,29.94,SW,222,3.0,11.0,62,0.00,,,0.00,Wunderground v.1.15,2014-09-20 21:10:00,
2014-09-20 17:15:00,81.4,67.1,29.94,WSW,244,4.0,6.0,62,0.00,,,0.00,Wunderground v.1.15,2014-09-20 21:15:00,
2014-09-20 17:20:00,81.7,67.9,29.94,SSE,160,2.0,10.0,63,0.00,,,0.00,Wunderground v.1.15,2014-09-20 21:20:00,
2014-09-20 17:25:00,82.4,67.6,29.93,SW,234,4.0,5.0,61,0.00,,,0.00,Wunderground v.1.15,2014-09-20 21:25:00,
2014-09-20 17:30:00,81.9,67.1,29.93,NW,324,1.0,9.0,61,0.00,,,0.00,Wunderground v.1.15,2014-09-20 21:30:00,
2014-09-20 17:35:00,81.6,67.8,29.93,SSE,153,7.0,7.0,63,0.00,,,0.00,Wunderground v.1.15,2014-09-20 21:35:00,
2014-09-20 17:40:00,80.9,67.1,29.93,SSE,157,7.0,14.0,63,0.00,,,0.00,Wunderground v.1.15,2014-09-20 21:40:00,
2014-09-20 17:45:00,81.1,66.8,29.93,South,179,3.0,6.0,62,0.00,,,0.00,Wunderground v.1.15,2014-09-20 21:45:00,
2014-09-20 17:50:00,81.2,66.5,29.93,ESE,117,7.0,13.0,61,0.00,,,0.00,Wunderground v.1.15,2014-09-20 21:50:00,
2014-09-20 17:55:00,81.0,66.8,29.92,WNW,288,5.0,11.0,62,0.00,,,0.00,Wunderground v.1.15,2014-09-20 21:55:00,
2014-09-20 18:00:00,81.0,66.8,29.92,SW,233,2.0,11.0,62,0.00,,,0.00,Wunderground v.1.15,2014-09-20 22:00:00,
2014-09-20 18:05:00,80.8,67.0,29.91,SW,229,1.0,5.0,63,0.00,,,0.00,Wunderground v.1.15,2014-09-20 22:05:00,
2014-09-20 18:10:00,80.9,67.1,29.91,SW,230,3.0,6.0,63,0.00,,,0.00,Wunderground v.1.15,2014-09-20 22:10:00,
2014-09-20 18:15:00,80.7,66.9,29.91,SW,234,4.0,6.0,63,0.00,,,0.00,Wunderground v.1.15,2014-09-20 22:15:00,
2014-09-20 18:20:00,80.6,66.8,29.91,WSW,247,5.0,7.0,63,0.00,,,0.00,Wunderground v.1.15,2014-09-20 22:20:00,
2014-09-20 18:25:00,80.5,67.2,29.91,WSW,240,8.0,8.0,64,0.00,,,0.00,Wunderground v.1.15,2014-09-20 22:25:00,
2014-09-20 18:30:00,80.5,67.2,29.91,WSW,246,0.0,8.0,64,0.00,,,0.00,Wunderground v.1.15,2014-09-20 22:30:00,
2014-09-20 18:34:00,80.4,67.1,29.91,West,267,2.0,8.0,64,0.00,,,0.00,Wunderground v.1.15,2014-09-20 22:34:00,
2014-09-20 18:39:00,80.1,67.3,29.91,SSE,151,6.0,9.0,65,0.00,,,0.00,Wunderground v.1.15,2014-09-20 22:39:00,
2014-09-20 18:43:00,79.8,67.0,29.91,WSW,239,5.0,9.0,65,0.00,,,0.00,Wunderground v.1.15,2014-09-20 22:43:00,
2014-09-20 18:48:00,79.6,66.8,29.91,SSE,165,2.0,7.0,65,0.00,,,0.00,Wunderground v.1.15,2014-09-20 22:48:00,
2014-09-20 18:53:00,79.6,67.2,29.91,WSW,246,0.0,7.0,66,0.00,,,0.00,Wunderground v.1.15,2014-09-20 22:53:00,
2014-09-20 18:58:00,79.5,67.1,29.92,WSW,242,1.0,3.0,66,0.00,,,0.00,Wunderground v.1.15,2014-09-20 22:58:00,
2014-09-20 18:59:00,79.5,67.1,29.92,SW,223,5.0,5.0,66,0.00,,,0.00,Wunderground v.1.15,2014-09-20 22:59:00,
2014-09-20 19:04:00,79.4,67.0,29.92,SE,144,2.0,13.0,66,0.00,,,0.00,Wunderground v.1.15,2014-09-20 23:04:00,
2014-09-20 19:09:00,79.3,67.0,29.92,SSE,160,2.0,7.0,66,0.00,,,0.00,Wunderground v.1.15,2014-09-20 23:09:00,
2014-09-20 19:14:00,79.1,66.8,29.92,ESE,114,0.0,9.0,66,0.00,,,0.00,Wunderground v.1.15,2014-09-20 23:14:00,
2014-09-20 19:17:00,78.8,66.9,29.92,South,169,3.0,6.0,67,0.00,,,0.00,Wunderground v.1.15,2014-09-20 23:17:00,
2014-09-20 19:22:00,78.6,67.2,29.92,SSW,207,2.0,9.0,68,0.00,,,0.00,Wunderground v.1.15,2014-09-20 23:22:00,
2014-09-20 19:27:00,78.2,66.8,29.93,SW,236,3.0,4.0,68,0.00,,,0.00,Wunderground v.1.15,2014-09-20 23:27:00,
2014-09-20 19:32:00,78.0,67.0,29.93,SW,229,1.0,4.0,69,0.00,,,0.00,Wunderground v.1.15,2014-09-20 23:32:00,
2014-09-20 19:37:00,77.8,66.8,29.94,SW,229,0.0,3.0,69,0.00,,,0.00,Wunderground v.1.15,2014-09-20 23:37:00,
2014-09-20 19:42:00,77.5,66.9,29.94,SW,230,0.0,3.0,70,0.00,,,0.00,Wunderground v.1.15,2014-09-20 23:42:00,
2014-09-20 19:47:00,77.3,67.2,29.94,SW,230,0.0,3.0,71,0.00,,,0.00,Wunderground v.1.15,2014-09-20 23:47:00,
2014-09-20 19:52:00,77.1,67.0,29.94,SW,229,0.0,3.0,71,0.00,,,0.00,Wunderground v.1.15,2014-09-20 23:52:00,
2014-09-20 19:57:00,76.9,67.2,29.94,SW,219,0.0,4.0,72,0.00,,,0.00,Wunderground v.1.15,2014-09-20 23:57:00,
2014-09-20 20:02:00,76.9,67.2,29.94,SW,219,0.0,4.0,72,0.00,,,0.00,Wunderground v.1.15,2014-09-21 00:02:00,
2014-09-20 20:07:00,76.8,67.1,29.94,SSW,196,0.0,4.0,72,0.00,,,0.00,Wunderground v.1.15,2014-09-21 00:07:00,
2014-09-20 20:12:00,76.7,67.4,29.94,South,180,1.0,4.0,73,0.00,,,0.00,Wunderground v.1.15,2014-09-21 00:12:00,
2014-09-20 20:17:00,76.6,67.3,29.94,South,179,0.0,2.0,73,0.00,,,0.00,Wunderground v.1.15,2014-09-21 00:17:00,
2014-09-20 20:22:00,76.4,67.5,29.95,South,179,0.0,2.0,74,0.00,,,0.00,Wunderground v.1.15,2014-09-21 00:22:00,
2014-09-20 20:27:00,76.1,67.6,29.95,South,179,0.0,0.0,75,0.00,,,0.00,Wunderground v.1.15,2014-09-21 00:27:00,
2014-09-20 20:32:00,75.9,67.4,29.95,South,179,0.0,2.0,75,0.00,,,0.00,Wunderground v.1.15,2014-09-21 00:32:00,
2014-09-20 20:37:00,75.7,67.2,29.95,South,179,0.0,0.0,75,0.00,,,0.00,Wunderground v.1.15,2014-09-21 00:37:00,
2014-09-20 20:42:00,75.5,67.4,29.96,South,179,0.0,1.0,76,0.00,,,0.00,Wunderground v.1.15,2014-09-21 00:42:00,
2014-09-20 20:47:00,75.3,67.6,29.95,South,179,0.0,2.0,77,0.00,,,0.00,Wunderground v.1.15,2014-09-21 00:47:00,
2014-09-20 20:52:00,75.1,67.4,29.95,South,179,1.0,2.0,77,0.00,,,0.00,Wunderground v.1.15,2014-09-21 00:52:00,
2014-09-20 20:57:00,74.8,67.5,29.96,South,179,0.0,0.0,78,0.00,,,0.00,Wunderground v.1.15,2014-09-21 00:57:00,
2014-09-20 21:02:00,74.7,67.4,29.96,South,179,0.0,1.0,78,0.00,,,0.00,Wunderground v.1.15,2014-09-21 01:02:00,
2014-09-20 21:08:00,74.5,67.2,29.96,South,179,0.0,0.0,78,0.00,,,0.00,Wunderground v.1.15,2014-09-21 01:08:00,
2014-09-20 21:13:00,74.3,67.4,29.96,South,179,0.0,0.0,79,0.00,,,0.00,Wunderground v.1.15,2014-09-21 01:13:00,
2014-09-20 21:18:00,74.0,67.4,29.96,South,179,0.0,0.0,80,0.00,,,0.00,Wunderground v.1.15,2014-09-21 01:18:00,